Regional Weather Roundup
Issued by NWS

Home | Current Version | Previous Version | Text Only | Print | Product List | Glossary Off
Versions: 1 2 3 4 5 6 7 8 9 10 11 12 13 14 15 16 17 18 19 20 21 22 23 24 25 26 27 28 29 30 31 32 33 34 35 36 37 38 39 40 41 42 43 44 45 46 47 48 49 50

000
ASUS43 KLOT 032209
RWRIL

ILLINOIS REGIONAL WEATHER ROUNDUP
NATIONAL WEATHER SERVICE CHICAGO/ROMEOVILLE IL
500 PM CDT WED JUN 03 2015

NOTE: "FAIR" INDICATES FEW OR NO CLOUDS BELOW 12,000 FEET WITH NO
SIGNIFICANT WEATHER AND/OR OBSTRUCTIONS TO VISIBILITY.

* THESE STATIONS ARE NOT UNDER NWS QUALITY CONTROL. THEY ALSO MAY NOT
  REPORT WEATHER SUCH AS PRECIPITATION OR FOG.

ILZ001-002-007-009-015-016-024-032300-
NORTHWEST ILLINOIS

CITY           SKY/WX    TMP DP  RH WIND       PRES   REMARKS
MOLINE         SUNNY     78  58  49 S10       29.91F
STERLING*      MOSUNNY   79  57  47 S7        29.94S HX  80
SAVANNA*       MOSUNNY   79  53  41 S15       29.91F
$$

ILZ003-004-008-010-011-017-018-032300-
NORTH CENTRAL ILLINOIS

CITY           SKY/WX    TMP DP  RH WIND       PRES   REMARKS
ROCKFORD       PTSUNNY   79  55  43 S17       29.96F
FREEPORT*      MOSUNNY   77  58  50 S12       29.96F
ROCHELLE*      MOSUNNY   80  55  43 S13G22    29.95F HX  80
DE KALB*       MOSUNNY   74  57  54 S13       29.98F
PERU*          MOSUNNY   78  53  41 S13       29.97S
$$

ILZ005-006-012>014-019>023-032300-
NORTHEAST ILLINOIS

CITY           SKY/WX    TMP DP  RH WIND       PRES   REMARKS
CHICAGO-OHARE  PTSUNNY   76  54  46 S6        29.97F
CHICAGO-MIDWAY PTSUNNY   79  51  37 S10G20    29.98F
AURORA         MOSUNNY   78  56  46 S15G21    29.97F
LANSING*       SUNNY     75  50  41 S8        30.00S
JOLIET*        MOSUNNY   78  59  52 SE8       29.97F
WAUKEGAN       MOSUNNY   65  51  60 SE10      29.99F
DUPAGE AIRPORT MOSUNNY   75  57  53 S9        29.97F
KANKAKEE*      SUNNY     76  57  51 S7        30.01S
WHEELING       MOSUNNY   75  54  47 SE9       29.99F
MORRIS*        MOSUNNY   79  55  44 S13       29.96F
ROMEOVILLE*    PTSUNNY   76  55  48 S10       29.98F
NORTHERLY ISL    N/A     61  53  75 E3          N/A
$$

LMZ740>746-032300-
SOUTHERN LAKE MICHIGAN

STATION/POSITION SKY/WX   TEMP    WIND        PRES    VSBY  WAVE
                          AIR SEA DIR/SP/G                  HT/PER
                          (F)     (DEG/KT/KT) (MB)    (MI)  (FT/S)
SOUTHERN BUOY              54 39  110/  8/  8 1016.8F         0
HARRISON CRIB              59      90/ 17/ 18   N/A
BURNHAM HARBOR             61      80/  4/ 10   N/A
CALUMET HARBOR             61      60/  7/  9   N/A
BURNS HARBOR                       70/ 10/ 12 1016.9F
MICHIGAN CITY              59      30/  9/  9   N/A
MICHIGAN CITY 6N           59 58   80/  8/ 10   N/A           1
ST. JOSEPH                 59 58   80/ 10/ 10   N/A           0
$$

ILZ025>027-034>036-040-047-049-050-058-095>099-032300-
WEST-CENTRAL ILLINOIS

CITY           SKY/WX    TMP DP  RH WIND       PRES   REMARKS
QUINCY         PTSUNNY   71  62  73 SE14      29.91F
GALESBURG*     SUNNY     76  59  55 SE8G16    29.93F
MACOMB*        SUNNY     76  60  58 S13G18    29.95F
JACKSONVILLE*  PTSUNNY   74  62  67 S8        29.95F
PITTSFIELD*    PTSUNNY   72  63  73 SE14      29.94F
$$

ILZ028>032-037-038-041>044-048-051>054-059>061-032300-
CENTRAL ILLINOIS

CITY           SKY/WX    TMP DP  RH WIND       PRES   REMARKS
PONTIAC        MOSUNNY   78  59  52 S9        29.98F
BLOOMINGTON    MOSUNNY   76  59  55 S10       30.00F
DECATUR        MOSUNNY   76  57  51 S9G17     29.99F
PEORIA         PTSUNNY   78  57  48 S15       29.96F
LACON*         PTSUNNY   76  57  51 S9        29.95F
LINCOLN*       PTSUNNY   76  57  50 S9        29.96F
SPRINGFIELD    PTSUNNY   77  60  55 S12       29.97F
TAYLORVILLE    PTSUNNY   73  57  56 S9        29.98F
$$

ILZ033-039-045-046-055>057-062-063-032300-
EAST-CENTRAL ILLINOIS

CITY           SKY/WX    TMP DP  RH WIND       PRES   REMARKS
CHAMPAIGN      SUNNY     76  56  49 SW3       30.00F
DANVILLE*      SUNNY     73  53  50 SW3       29.99F
RANTOUL*       SUNNY     78  56  45 CALM      29.99F
MATTOON        SUNNY     73  58  59 S7        30.00F
PARIS*         SUNNY     73  55  52 CALM      30.03S
$$

ILZ079-100>102-032300-
SOUTHWEST ILLINOIS

CITY           SKY/WX    TMP DP  RH WIND       PRES   REMARKS
ALTON          PTSUNNY   73  66  78 S8        29.98F
BELLEVILLE     PTSUNNY   74  62  66 SW8       29.98F
CAHOKIA*       PTSUNNY   75  61  61 CALM      29.98F
SPARTA*        MOSUNNY   74  60  62 CALM      30.00F
$$

ILZ064>066-069>071-074>076-080>082-084>086-088>090-092>094-032300-
SOUTH-CENTRAL ILLINOIS

CITY           SKY/WX    TMP DP  RH WIND       PRES   REMARKS
CARBONDALE     SUNNY     77  58  51 VRB3      29.99F
CAIRO*         SUNNY     78  56  47 CALM      29.99S
EFFINGHAM*     SUNNY     74  56  51 E3        30.02F
MARION         MOSUNNY   77  59  53 MISG      30.00F
MT. VERNON     SUNNY     75  59  57 NE3       30.01F
CENTRALIA*     MOSUNNY   83  54  35 CALM      30.00F HX  82
SALEM*         MOSUNNY   76  58  53 CALM      30.01S
METROPOLIS*    SUNNY     78  58  50 CALM      29.99F
$$

ILZ067-068-072-073-078-083-087-091-032300-
SOUTHEAST ILLINOIS

CITY           SKY/WX    TMP DP  RH WIND       PRES   REMARKS
LAWRENCEVILLE  SUNNY     73  56  54 E5        30.01F
FLORA*         SUNNY     74  58  58 SE6       30.01F
FAIRFIELD*     SUNNY     74  58  57 SE6       30.00F
HARRISBURG*    SUNNY     76  54  47 CALM      30.01F
ROBINSON*      SUNNY     74  55  51 SE3       30.03F
CARMI*         SUNNY     77  48  36 E8        30.00S
$$

ABBREVIATIONS USED IN REMARKS
   TC - TEMPERATURE IN CELSIUS
  WCI - WIND CHILL INDEX
   HX - HEAT INDEX
  VSB - VISIBILITY
$$



USA.gov is the U.S. government's official web portal to all federal, state and local government web resources and services.